Flag for Germany Weather past 2 weeks in Freiburg, Baden-Württemberg, Germany

Now
45 °F

Passing clouds.


Feels Like: 45 °F
Forecast: 38 / 64 °F
Wind: 2 mph from North

Location: Freiburg

Current Time: Apr 18, 2015 at 9:46:07 AM

Latest Report: Apr 18, 2015 at 9:00 AM


Visibility: 16 mi

Pressure: 30.18 "Hg

Humidity: 76%

Dew point: 38 °F

Location of FreiburgLocation

Historic Weather in Freiburg — Graph

°F

Freiburg temperature yesterday

Maximum temperature yesterday: 63 °F (at 4:00 AM)
Minimum temperature yesterday: 48 °F (at 9:00 PM)
Average temperature yesterday: 56 °F

Past Weeks' High & Low Weather Summary

 TemperatureHumidityPressure
High78 °F (Apr 15, 4:00 PM)100% (Apr 3, 7:00 AM)30.62 "Hg (Apr 3, 7:00 AM)
Low26 °F (Apr 6, 7:00 AM)15% (Apr 15, 4:00 PM)29.89 "Hg (Apr 16, 6:00 PM)
Average51 °F64%30.25 "Hg
* Reported Apr 3 7:00 AM — Apr 18 7:00 AM, Freiburg, Weather by CustomWeather, © 2015

Note: Actual official high and low records may vary slightly from our data, if they occured in-between our weather recording intervals... More about our weather records

Advertising

Freiburg weather history for previous 24 hours

 ConditionsComfort  
Time TempWeatherWind HumidityBarometerVisibility
7:00 AM
Sat, Apr 18
39 °FSunny.3 mph95%30.17 "Hg6 mi
6:00 AM41 °FPassing clouds.2 mph93%30.15 "Hg5 mi
4:00 AM43 °FPassing clouds.2 mph97%30.14 "Hg6 mi
3:00 AM45 °FFog.1 mph93%30.12 "Hg4 mi
1:00 AM48 °FFog.1 mph95%30.09 "Hg3 mi
12:00 AM49 °FOvercast.1 mph84%30.09 "Hg7 mi
10:00 PM
Fri, Apr 17
48 °FLight rain. Overcast.1 mph91%30.05 "Hg4 mi
9:00 PM48 °FLight rain. Overcast.1 mph94%30.03 "Hg3 mi
7:00 PM53 °FRain. Fog.3 mph94%29.97 "Hg4 mi
6:00 PM57 °FDrizzle. Overcast.5 mph86%29.95 "Hg18 mi
4:00 PM58 °FOvercast.6 mph80%29.95 "Hg16 mi
3:00 PM58 °FOvercast.7 mph84%29.95 "Hg9 mi
1:00 PM55 °FLight rain. Overcast.5 mph91%29.96 "Hg6 mi
12:00 PM56 °FLight rain. Overcast.6 mph83%29.95 "Hg6 mi
10:00 AM56 °FLight rain. Overcast.7 mph81%29.94 "Hg17 mi
9:00 AM56 °FLight rain. Overcast.5 mph82%29.93 "Hg6 mi
Weather by CustomWeather, © 2015

See weather overviewHow to use our weather pages